This demonstration page uses our WeatherBlox Daily Observations layout. Learn more.

38.88101, -77.10428

Hourly Observations for March 9, 2017

Temp ( °F °C ) Dew Point ( °F °C ) Humidity (%) Winds ( mph kmh ) Pressure ( in mb ) Visibility ( mi km ) Precip ( " mm )
12:52 am 00:52 Partly Cloudy 54 12.2 22 -5.6 29 29 SW 6 9 30.09 1019 10 16.09344 0 0
1:52 am 01:52 Partly Cloudy 52 11.1 18 -7.8 26 26 SW 6 9 30.09 1019 10 16.09344 0 0
2:52 am 02:52 Mostly Clear 50 10 22 -5.6 33 33 SSW 7 11 30.09 1019 10 16.09344 0 0
3:52 am 03:52 Clear 48 8.9 23 -5 37 37 SSW 8 13 30.09 1019 10 16.09344 0 0
4:52 am 04:52 Clear 49 9.4 21 -6.1 33 33 SW 7 11 30.09 1019 10 16.09344 0 0
5:52 am 05:52 Clear 49 9.4 21 -6.1 33 33 SW 7 11 30.12 1020 10 16.09344 0 0
6:52 am 06:52 Mostly Sunny 50 10 23 -5 35 35 SW 7 11 30.12 1020 10 16.09344 0 0
7:52 am 07:52 Mostly Sunny 54 12.2 24 -4.4 31 31 SW 9 15 30.12 1020 10 16.09344 0 0
8:52 am 08:52 Mostly Sunny 60 15.6 23 -5 24 24 SW 9 15 30.12 1020 10 16.09344 0 0
9:52 am 09:52 Sunny 64 17.8 21 -6.1 19 19 WSW 14 22 30.12 1020 10 16.09344 0 0
10:52 am 10:52 Sunny 67 19.4 21 -6.1 17 17 W 12 19 30.09 1019 10 16.09344 0 0
11:52 am 11:52 Sunny 69 20.6 22 -5.6 17 17 W 13 20 30.06 1018 10 16.09344 0 0
12:52 pm 12:52 Mostly Sunny 71 21.7 21 -6.1 15 15 SW 12 19 30.03 1017 10 16.09344 0 0
1:52 pm 13:52 Mostly Sunny 72 22.2 19 -7.2 13 13 WNW 13 20 30 1016 10 16.09344 0 0
2:52 pm 14:52 Mostly Sunny 74 23.3 20 -6.7 13 13 WSW 14 22 29.97 1015 10 16.09344 0 0
3:15 pm 15:15 Partly Cloudy 72 22.2 19 -7.2 13 13 W 10 17 29.97 1015 10 16.09344 0 0
3:52 pm 15:52 Partly Cloudy 73 22.8 19 -7.2 13 13 W 17 28 29.94 1014 10 16.09344 0 0
4:52 pm 16:52 Mostly Sunny 71 21.7 22 -5.6 16 16 WSW 13 20 29.94 1014 10 16.09344 0 0
5:52 pm 17:52 Partly Cloudy 70 21.1 18 -7.8 14 14 W 10 17 29.94 1014 10 16.09344 0 0
6:52 pm 18:52 Partly Cloudy 64 17.8 26 -3.3 24 24 SSW 3 6 29.94 1014 10 16.09344 0 0
7:52 pm 19:52 Partly Cloudy 60 15.6 36 2.2 41 41 SSE 5 7 29.94 1014 10 16.09344 0 0
8:52 pm 20:52 Mostly Cloudy 59 15 34 1.1 39 39 S 10 17 29.94 1014 10 16.09344 0 0
9:19 pm 21:19 Mostly Cloudy 60 15.6 30 -1.1 32 32 SSW 7 11 29.94 1014 10 16.09344 0 0
9:52 pm 21:52 Mostly Cloudy 59 15 31 -0.6 35 35 SSW 8 13 29.91 1013 10 16.09344 0 0
10:52 pm 22:52 Mostly Cloudy 58 14.4 33 0.6 39 39 SSW 6 9 29.91 1013 10 16.09344 0 0
11:52 pm 23:52 Mostly Cloudy 57 13.9 32 0 39 39 SSE 5 7 29.85 1011 10 16.09344 0 0

Powered by AerisWeather